Temperature
5 5 5 5 5 5 4 4 4 4 4 4 4 4 3 3 3 3 3 3 3 2 2 2 2 2 2 2 1 1 1 1 0 1 1 1 1 1 2 2 2 2 2
4 4 4 4 4 4 4 4 3 3 3 3 3 3 3 3 3 3 2 2 2 2 2 2 1 1 1 1 1 1 1 0 0 -0 0 1 1 1 1 1 1 1 1
4 4 4 4 4 3 3 3 3 3 3 3 2 2 2 2 2 2 2 2 1 1 1 1 1 1 0 0 0 0 -0 -0 -0 -1 -0 -0 -0 0 0 0 1 1 1
3 3 3 3 3 3 3 3 2 2 2 2 2 2 2 1 1 1 1 1 1 1 1 1 0 0 -0 -0 -0 -1 -1 -1 -1 -1 -1 -1 -1 -1 -1 -1 -0 -0 0
2 2 2 2 2 2 2 2 2 2 1 1 1 1 1 1 1 1 1 1 0 0 0 -0 -0 -0 -0 -1 -1 -1 -1 -1 -1 -2 -2 -2 -2 -2 -2 -1 -1 -1 -1
2 2 2 2 1 1 1 1 1 1 1 1 1 0 0 0 0 0 0 -0 -0 -0 -0 -1 -1 -1 -1 -1 -1 -1 -1 -2 -2 -2 -2 -2 -2 -2 -2 -2 -2 -2 -2
1 1 1 1 1 1 1 0 0 0 0 0 0 -0 -0 -0 -0 -0 -0 -1 -1 -1 -1 -1 -1 -1 -1 -1 -1 -1 -2 -2 -2 -3 -3 -3 -3 -3 -3 -3 -3 -3 -3
1 1 1 0 0 0 0 -0 -0 -0 -0 -0 -0 -1 -1 -1 -1 -1 -1 -1 -1 -1 -2 -2 -2 -2 -2 -2 -2 -2 -2 -2 -2 -3 -3 -3 -3 -3 -3 -3 -3 -3 -3
0 0 0 -0 -0 -0 -0 -1 -1 -1 -1 -1 -1 -1 -1 -1 -1 -1 -2 -2 -2 -2 -2 -2 -2 -2 -2 -2 -3 -3 -3 -3 -3 -3 -3 -3 -3 -3 -3 -3 -3 -4 -3
-0 -0 -0 -1 -1 -1 -1 -1 -1 -1 -1 -1 -2 -2 -2 -2 -2 -2 -2 -2 -2 -2 -3 -3 -3 -3 -3 -3 -3 -3 -3 -3 -3 -3 -3 -3 -3 -4 -4 -4 -4 -4 -4
-1 -1 -1 -1 -1 -2 -2 -2 -2 -2 -2 -2 -2 -2 -2 -2 -2 -2 -2 -3 -3 -3 -3 -3 -3 -3 -3 -3 -3 -4 -4 -4 -4 -4 -4 -4 -4 -4 -4 -4 -4 -4 -4
-1 -2 -2 -2 -2 -2 -2 -2 -2 -3 -3 -3 -3 -3 -3 -3 -3 -3 -3 -3 -3 -3 -3 -3 -3 -3 -4 -4 -4 -4 -4 -4 -4 -4 -4 -4 -4 -4 -4 -4 -4 -4 -5
-2 -2 -2 -2 -2 -3 -3 -3 -3 -3 -3 -3 -3 -3 -3 -3 -3 -3 -3 -3 -4 -4 -4 -4 -4 -4 -4 -4 -4 -4 -4 -5 -5 -5 -5 -5 -5 -5 -5 -4 -4 -4 -5
-3 -3 -3 -3 -3 -3 -3 -3 -3 -3 -3 -4 -4 -4 -4 -4 -4 -4 -4 -4 -4 -4 -4 -4 -4 -4 -5 -5 -5 -5 -5 -5 -5 -5 -5 -5 -5 -5 -5 -5 -5 -5 -5
-3 -3 -3 -3 -4 -4 -4 -4 -4 -4 -4 -4 -4 -4 -4 -4 -4 -4 -4 -4 -5 -5 -5 -5 -5 -5 -5 -5 -5 -5 -5 -5 -5 -5 -5 -5 -5 -6 -6 -6 -6 -6 -6
-4 -4 -4 -4 -4 -4 -4 -4 -4 -4 -4 -5 -5 -5 -5 -5 -5 -5 -5 -5 -5 -5 -5 -5 -5 -5 -6 -6 -6 -6 -6 -6 -6 -6 -6 -6 -6 -6 -6 -6 -6 -6 -6
-4 -4 -4 -5 -5 -5 -5 -5 -5 -5 -5 -5 -5 -5 -5 -5 -5 -5 -5 -5 -5 -6 -6 -5 -6 -6 -6 -6 -6 -6 -6 -6 -6 -6 -6 -6 -6 -7 -7 -7 -7 -7 -7
-5 -5 -5 -5 -5 -5 -5 -5 -5 -5 -5 -5 -5 -5 -5 -5 -5 -6 -6 -6 -6 -6 -6 -6 -6 -6 -6 -6 -6 -6 -6 -6 -6 -6 -7 -7 -7 -7 -7 -7 -7 -7 -7
-5 -5 -5 -5 -5 -5 -5 -6 -6 -6 -6 -6 -6 -6 -6 -6 -6 -6 -6 -6 -6 -6 -6 -6 -6 -7 -7 -7 -7 -7 -7 -7 -7 -7 -7 -7 -7 -7 -7 -7 -7 -7 -7
-5 -5 -6 -6 -6 -6 -6 -6 -6 -6 -6 -6 -6 -6 -6 -6 -6 -6 -6 -7 -7 -7 -7 -7 -7 -7 -7 -7 -7 -7 -7 -7 -7 -7 -7 -7 -7 -7 -8 -8 -8 -8 -7
-6 -6 -6 -6 -6 -6 -6 -6 -6 -6 -6 -6 -6 -7 -7 -7 -7 -7 -7 -7 -7 -7 -7 -7 -7 -7 -7 -7 -7 -7 -7 -7 -7 -7 -7 -7 -8 -8 -8 -8 -8 -8 -8
-6 -6 -7 -7 -6 -7 -7 -7 -7 -7 -7 -7 -7 -7 -7 -7 -7 -7 -7 -7 -7 -7 -7 -7 -7 -7 -7 -8 -8 -8 -8 -8 -8 -8 -8 -8 -8 -8 -8 -8 -8 -8 -8
-7 -7 -7 -7 -7 -7 -7 -7 -7 -7 -7 -7 -7 -7 -7 -7 -7 -7 -7 -7 -7 -7 -7 -7 -7 -7 -8 -8 -8 -8 -8 -8 -8 -8 -8 -8 -8 -8 -8 -8 -8 -8 -8
-7 -7 -7 -7 -7 -7 -7 -7 -7 -7 -7 -7 -7 -7 -7 -7 -7 -7 -7 -7 -7 -7 -8 -8 -8 -8 -8 -8 -8 -8 -8 -8 -8 -8 -8 -8 -8 -8 -8 -8 -8 -8 -8
-7 -7 -7 -7 -7 -7 -8 -7 -7 -8 -8 -8 -8 -8 -8 -8 -8 -7 -7 -7 -8 -8 -8 -8 -8 -8 -8 -8 -8 -8 -8 -8 -8 -8 -8 -9 -9 -9 -9 -8 -8 -8 -8
-8 -8 -8 -8 -8 -8 -8 -8 -8 -8 -8 -8 -8 -8 -8 -8 -8 -8 -8 -8 -8 -8 -8 -8 -8 -8 -8 -8 -8 -8 -8 -8 -8 -8 -9 -9 -9 -9 -9 -9 -8 -8 -9
Wind_Speed
4 4 4 4 4 4 4 4 3 3 3 3 2 2 2 2 2 2 2 3 3 3 3 3 3 3 3 3 3 3 4 5 7 7 6 7 8 8 9 9 9 9 9
3 3 3 3 3 4 4 3 3 3 3 3 3 3 3 3 2 3 3 3 3 3 3 3 4 3 4 4 3 4 4 5 6 8 7 7 8 8 9 9 9 9 9
4 3 3 2 3 3 3 3 3 3 2 2 2 2 2 2 2 3 3 3 3 3 3 3 4 4 4 4 4 4 4 4 5 6 7 7 7 7 8 8 8 8 8
3 3 3 3 2 2 3 3 3 2 2 2 2 2 2 2 2 2 2 3 3 3 3 3 4 4 5 5 4 5 4 5 5 5 6 6 6 7 7 7 7 7 7
3 3 3 2 2 1 1 2 2 2 2 2 2 2 3 3 3 3 3 3 3 3 3 3 4 4 5 5 4 4 4 4 4 5 5 6 6 6 6 6 7 8 7
3 3 2 2 2 2 2 1 1 1 2 2 2 3 3 2 3 4 3 3 4 4 4 3 4 4 4 4 5 5 6 5 5 5 6 7 8 7 7 7 7 7 6
3 3 2 2 2 2 2 2 2 2 2 2 2 3 3 3 3 4 4 4 4 4 4 4 3 3 4 4 4 5 5 6 7 7 7 8 8 8 8 8 7 7 8
3 3 3 3 2 2 2 2 2 2 2 2 2 2 2 2 3 4 3 3 3 3 4 4 4 4 4 4 4 5 5 5 6 6 6 7 7 8 8 8 9 8 8
3 3 3 3 3 3 2 2 2 2 2 2 2 3 3 3 3 3 3 2 2 3 3 4 4 5 5 6 5 5 5 5 5 6 7 8 9 9 8 6 6 6 7
3 2 2 3 3 3 3 2 2 2 2 2 2 2 3 3 3 4 4 2 3 3 3 3 5 5 6 6 4 4 5 6 6 5 6 7 7 7 7 6 6 6 6
2 2 2 2 3 3 3 3 3 2 2 2 2 2 3 3 3 4 4 3 3 3 3 3 3 4 6 6 6 5 6 6 5 5 5 5 5 5 5 5 5 5 5
2 2 2 2 2 2 3 3 3 3 3 3 2 2 2 2 3 3 4 4 4 3 3 3 3 4 5 6 5 6 6 6 4 4 4 5 5 5 5 6 6 7 7
2 2 2 2 2 2 3 3 3 3 3 2 2 2 2 2 2 3 4 4 4 4 3 4 4 5 6 5 5 6 6 4 4 4 4 5 5 5 6 6 6 7 7
3 2 2 2 2 2 2 3 3 3 3 3 3 3 2 2 2 2 2 2 3 3 3 3 4 5 5 5 5 4 4 3 4 4 4 5 5 5 5 5 5 5 5
3 3 2 2 2 2 2 3 3 3 3 3 3 3 3 3 3 3 3 3 3 3 3 2 3 3 3 3 3 3 3 3 4 4 4 4 4 5 5 5 5 5 5
3 3 2 2 2 2 2 2 3 4 4 5 5 5 4 5 5 5 5 5 5 5 4 3 3 3 3 3 3 4 4 4 4 4 4 4 5 5 5 5 5 5 5
3 3 2 2 2 2 2 2 2 2 3 3 4 5 5 5 5 5 5 5 5 5 4 3 3 4 4 4 4 4 4 4 4 4 4 5 5 5 5 5 5 5 5
2 2 2 2 2 3 3 3 2 2 2 2 3 4 5 5 5 5 5 4 4 4 3 4 4 4 4 4 4 4 4 4 4 4 5 5 5 5 5 5 5 5 5
2 2 2 2 2 3 3 3 3 3 3 3 2 2 3 4 4 5 4 4 4 4 4 4 4 4 4 4 4 5 5 5 5 5 5 5 4 4 5 5 5 6 6
2 3 2 2 2 2 3 3 3 3 3 3 3 3 2 3 3 3 3 4 4 4 4 4 4 5 5 5 5 5 5 5 5 5 4 4 4 5 5 6 5 6 5
2 2 3 2 2 2 3 3 3 3 3 3 3 3 4 3 4 4 4 4 4 5 5 5 5 5 5 5 5 5 6 5 5 5 5 5 5 5 5 5 5 5 5
2 2 2 2 2 2 3 3 3 3 3 3 3 3 5 4 4 4 4 4 4 5 5 5 5 5 5 5 5 6 6 6 5 5 5 5 5 5 5 5 5 5 5
2 2 2 2 2 3 3 3 3 3 3 3 3 3 3 4 4 4 4 4 5 5 5 5 6 6 6 6 7 6 6 6 6 5 5 5 5 5 5 5 6 6 5
2 2 2 2 2 3 3 3 3 3 3 3 3 4 4 4 4 5 5 5 5 5 6 6 6 7 8 8 7 8 8 8 7 7 7 6 6 5 5 5 6 6 6
2 2 2 2 3 3 3 3 3 3 3 3 3 4 4 4 4 4 4 5 5 6 6 7 7 7 8 9 9 8 9 10 9 8 7 6 6 6 6 6 5 6 6
2 2 2 2 3 3 3 3 3 3 3 4 4 4 4 4 4 5 5 5 5 5 6 6 7 8 9 9 9 10 10 10 10 10 8 6 6 6 6 5 6 6 6
Wind_Direction
186 183 181 185 184 184 192 198 201 203 210 218 224 229 238 242 243 240 247 247 244 251 252 253 258 263 265 269 269 268 271 273 276 289 297 302 305 308 311 311 311 309 310
182 176 184 188 185 190 196 201 201 202 207 215 219 226 236 241 241 242 243 245 247 250 251 254 260 259 262 267 268 271 272 274 275 286 297 302 303 306 308 310 313 310 310
174 170 169 190 193 197 196 197 200 198 198 209 215 226 237 241 241 240 239 245 251 254 255 256 262 261 264 267 271 274 278 281 282 284 294 301 303 308 310 310 311 312 313
176 175 182 190 192 200 197 197 195 193 194 205 218 232 242 244 241 242 248 250 257 264 266 262 263 263 267 272 273 278 284 287 288 285 291 298 302 307 308 311 314 318 315
180 184 192 185 182 183 189 195 194 194 200 207 216 227 237 241 238 239 249 255 257 260 268 269 270 275 278 281 281 285 287 284 285 289 291 298 302 309 309 308 309 314 312
187 193 188 180 179 185 190 191 199 206 210 214 224 229 238 242 236 247 253 258 260 262 268 276 279 272 272 278 285 289 291 286 286 287 291 294 299 304 304 305 308 312 308
193 193 192 187 189 192 183 191 206 214 219 224 229 231 242 241 242 253 253 260 258 264 268 272 280 284 284 283 290 288 289 288 282 283 285 291 297 302 302 300 299 298 294
196 195 197 194 196 197 196 205 218 222 222 227 228 233 235 239 243 250 255 258 261 265 267 269 272 280 283 285 285 286 288 289 288 283 285 293 299 303 300 295 293 293 290
202 205 207 201 197 201 209 217 220 224 232 236 237 240 244 248 245 249 266 265 260 267 269 270 270 276 282 286 282 285 289 295 294 285 290 292 296 299 302 300 298 298 296
215 216 211 207 203 209 215 219 226 226 237 242 247 250 250 254 248 254 266 258 262 272 277 275 267 272 284 288 282 284 290 296 300 302 297 295 294 296 299 293 295 293 298
213 208 207 208 210 214 214 217 218 219 225 232 241 251 250 250 249 254 265 261 258 264 268 273 272 274 284 288 288 287 290 297 297 298 299 300 301 300 300 299 295 286 288
196 199 209 216 212 212 209 215 218 215 220 227 236 253 259 258 256 255 261 260 262 259 263 271 279 288 292 292 293 296 299 299 294 295 297 299 303 304 306 304 298 288 281
198 207 211 214 219 218 216 215 217 220 223 229 236 247 260 267 258 256 261 258 261 263 267 276 286 291 294 290 290 294 294 291 290 290 292 297 301 304 306 307 305 301 296
201 211 211 210 218 223 224 220 220 222 225 226 236 248 258 264 268 270 262 256 253 260 268 276 287 292 290 288 290 289 283 284 286 286 292 297 302 302 303 307 307 310 305
206 209 213 216 217 222 231 232 232 236 236 235 237 241 251 260 264 263 272 266 260 260 266 270 273 279 282 284 287 289 285 283 285 288 290 294 298 300 303 308 305 302 299
207 212 216 218 222 226 230 245 241 245 249 255 258 257 258 261 268 264 264 268 265 261 262 263 265 269 274 278 283 285 283 283 284 286 285 289 293 296 300 302 300 298 301
214 220 223 224 227 231 234 235 247 256 249 254 258 262 267 263 259 264 267 263 262 259 261 263 265 269 273 275 277 278 279 280 281 280 282 286 289 291 293 296 299 297 297
223 226 230 229 232 235 241 241 239 244 262 276 268 261 267 264 260 261 268 265 255 251 256 262 266 268 270 272 273 274 276 278 276 276 278 281 283 285 287 289 290 292 295
228 229 230 234 235 238 242 243 238 242 251 263 272 269 269 270 266 264 265 256 256 256 258 261 265 267 267 267 269 270 271 273 275 275 276 278 278 279 282 285 288 289 289
233 237 239 236 237 238 237 238 237 241 248 253 258 268 277 276 267 265 258 255 256 260 262 264 266 267 267 265 265 266 268 270 272 272 276 277 276 274 277 281 284 287 287
238 234 231 234 235 236 239 241 240 243 248 256 261 265 268 268 268 267 265 263 262 263 265 266 266 265 264 266 264 262 263 267 268 270 272 272 272 273 276 277 281 283 286
237 235 231 233 237 241 248 246 243 245 248 253 262 266 268 268 267 269 270 269 269 268 267 268 268 267 266 264 263 262 261 263 264 266 267 270 271 272 273 275 278 279 279
234 233 239 246 249 252 257 253 250 250 253 257 261 264 265 265 268 270 272 274 273 272 271 268 268 268 269 269 265 261 261 263 263 263 265 267 267 270 272 272 273 277 277
234 236 243 250 250 250 255 259 260 259 260 262 264 265 266 268 271 273 276 277 277 277 276 273 269 270 273 275 273 266 264 266 267 261 258 260 264 267 268 268 270 273 274
239 244 248 250 250 255 260 263 264 266 268 268 269 271 272 273 275 276 278 277 279 279 280 280 276 275 275 276 275 272 268 268 268 267 262 259 259 261 264 266 269 274 273
246 249 252 254 256 260 260 263 267 271 271 271 271 272 275 277 279 280 282 281 283 283 283 282 279 279 280 279 276 274 274 272 271 268 266 259 259 261 264 265 268 269 272
Height
1494 1495 1496 1498 1499 1500 1501 1502 1503 1503 1504 1504 1503 1503 1503 1503 1503 1503 1503 1503 1502 1502 1502 1501 1501 1501 1500 1500 1499 1498 1497 1496 1493 1489 1488 1486 1483 1481 1478 1476 1474 1471 1468
1490 1491 1493 1494 1495 1496 1497 1498 1499 1499 1499 1499 1499 1500 1500 1500 1499 1499 1499 1499 1499 1498 1498 1497 1497 1497 1496 1495 1495 1493 1492 1491 1489 1486 1483 1481 1479 1477 1474 1472 1469 1467 1464
1487 1488 1489 1490 1492 1493 1494 1494 1495 1495 1495 1495 1496 1496 1496 1496 1496 1496 1495 1495 1495 1494 1494 1494 1493 1493 1492 1491 1490 1489 1488 1487 1485 1483 1479 1478 1475 1473 1470 1468 1466 1463 1460
1484 1485 1486 1487 1487 1489 1490 1490 1491 1491 1491 1492 1492 1492 1492 1492 1492 1492 1492 1491 1491 1491 1490 1490 1489 1489 1488 1487 1486 1485 1484 1482 1481 1479 1477 1474 1472 1469 1467 1464 1461 1459 1456
1481 1482 1483 1483 1484 1485 1486 1486 1486 1487 1488 1488 1488 1489 1489 1489 1489 1488 1488 1488 1487 1487 1486 1486 1485 1485 1484 1483 1482 1481 1480 1479 1477 1476 1474 1471 1469 1466 1463 1460 1458 1455 1452
1478 1479 1480 1481 1482 1482 1482 1482 1483 1484 1484 1485 1485 1485 1485 1485 1485 1485 1485 1484 1484 1483 1483 1482 1482 1481 1480 1479 1478 1477 1476 1475 1474 1472 1470 1468 1465 1463 1461 1458 1455 1452 1449
1475 1476 1477 1478 1479 1479 1479 1479 1480 1481 1481 1481 1482 1482 1482 1481 1481 1481 1481 1480 1480 1480 1479 1478 1478 1477 1476 1475 1474 1473 1472 1471 1470 1469 1467 1464 1462 1460 1458 1455 1453 1450 1448
1472 1473 1474 1475 1475 1476 1476 1477 1477 1478 1478 1478 1478 1478 1478 1478 1478 1478 1478 1477 1476 1476 1475 1475 1474 1473 1472 1471 1470 1469 1468 1466 1465 1464 1463 1461 1459 1457 1455 1452 1449 1447 1445
1469 1470 1471 1471 1472 1473 1473 1474 1474 1475 1475 1475 1475 1475 1474 1474 1475 1474 1474 1473 1473 1472 1471 1471 1471 1470 1469 1468 1467 1465 1464 1463 1461 1460 1458 1457 1455 1453 1451 1449 1446 1444 1441
1466 1467 1467 1468 1469 1470 1470 1471 1471 1472 1472 1472 1471 1471 1471 1471 1471 1471 1471 1470 1469 1468 1468 1467 1467 1466 1465 1464 1463 1462 1460 1459 1458 1456 1455 1453 1451 1449 1448 1446 1443 1441 1438
1463 1464 1464 1465 1466 1467 1467 1467 1468 1468 1469 1469 1468 1468 1468 1468 1468 1467 1467 1467 1466 1465 1464 1464 1463 1462 1461 1460 1460 1459 1457 1456 1454 1453 1451 1450 1448 1446 1444 1442 1440 1439 1436
1460 1461 1461 1462 1463 1464 1464 1464 1465 1465 1465 1465 1465 1465 1465 1464 1464 1463 1463 1463 1463 1462 1461 1461 1460 1459 1458 1457 1456 1455 1454 1453 1452 1450 1448 1446 1445 1443 1441 1439 1438 1436 1434
1457 1458 1459 1459 1460 1461 1461 1461 1461 1462 1462 1462 1462 1462 1461 1461 1461 1460 1460 1460 1459 1459 1458 1457 1457 1455 1455 1453 1453 1452 1451 1450 1448 1447 1445 1443 1442 1440 1438 1436 1434 1432 1430
1454 1455 1456 1457 1457 1457 1458 1458 1458 1458 1458 1459 1459 1458 1458 1458 1458 1457 1457 1456 1456 1455 1455 1454 1453 1452 1451 1450 1449 1448 1447 1446 1445 1444 1442 1440 1439 1437 1435 1433 1431 1429 1427
1451 1452 1453 1454 1454 1454 1455 1455 1455 1455 1456 1456 1455 1455 1455 1454 1455 1455 1454 1453 1453 1452 1452 1451 1450 1449 1448 1447 1446 1445 1444 1443 1442 1441 1439 1437 1435 1434 1432 1430 1428 1426 1424
1449 1449 1450 1451 1451 1451 1451 1452 1452 1452 1452 1452 1452 1452 1452 1452 1451 1451 1451 1450 1450 1449 1449 1448 1447 1446 1445 1444 1443 1442 1441 1440 1439 1437 1436 1434 1433 1431 1429 1427 1425 1424 1422
1447 1447 1448 1448 1448 1448 1448 1448 1448 1449 1449 1448 1448 1448 1448 1448 1448 1448 1447 1447 1447 1446 1446 1444 1444 1443 1442 1441 1440 1439 1438 1437 1435 1434 1432 1431 1430 1428 1426 1424 1422 1421 1419
1445 1445 1445 1445 1445 1445 1446 1446 1446 1445 1445 1445 1445 1445 1445 1445 1445 1444 1444 1444 1443 1442 1442 1441 1440 1439 1439 1438 1436 1435 1434 1433 1432 1430 1429 1428 1426 1425 1423 1421 1420 1418 1416
1442 1442 1443 1443 1443 1443 1443 1443 1443 1443 1442 1442 1442 1442 1442 1441 1441 1441 1441 1440 1439 1438 1438 1437 1436 1436 1435 1434 1433 1432 1430 1429 1428 1427 1425 1424 1423 1422 1420 1418 1417 1415 1413
1440 1440 1440 1440 1440 1440 1440 1440 1440 1440 1440 1439 1439 1439 1439 1438 1438 1437 1437 1436 1435 1435 1434 1433 1433 1432 1431 1430 1429 1428 1427 1425 1424 1423 1422 1421 1420 1418 1417 1415 1414 1412 1410
1438 1438 1438 1438 1438 1438 1438 1437 1437 1437 1437 1437 1436 1436 1436 1435 1434 1434 1433 1432 1432 1431 1430 1429 1429 1428 1427 1426 1425 1424 1423 1421 1420 1419 1418 1417 1416 1415 1413 1412 1411 1409 1407
1435 1435 1435 1435 1435 1435 1435 1435 1435 1434 1434 1434 1433 1433 1433 1432 1431 1431 1430 1429 1428 1427 1427 1426 1424 1424 1423 1422 1420 1419 1418 1417 1416 1416 1415 1413 1412 1411 1410 1409 1407 1406 1405
1433 1433 1433 1433 1432 1432 1432 1432 1432 1431 1431 1431 1430 1430 1429 1429 1428 1427 1426 1425 1424 1424 1423 1421 1420 1419 1418 1417 1416 1415 1414 1413 1413 1412 1411 1410 1409 1408 1406 1405 1404 1403 1402
1430 1430 1430 1430 1430 1429 1429 1429 1429 1428 1428 1428 1427 1427 1426 1425 1425 1424 1423 1422 1421 1420 1419 1417 1416 1415 1414 1413 1412 1411 1410 1409 1408 1408 1407 1406 1405 1404 1403 1402 1401 1400 1399
1428 1428 1428 1427 1427 1427 1426 1426 1426 1425 1425 1425 1424 1424 1423 1422 1421 1420 1419 1418 1417 1416 1415 1413 1412 1411 1410 1409 1407 1406 1406 1405 1404 1403 1403 1402 1401 1400 1400 1399 1398 1397 1396
1426 1425 1425 1425 1424 1424 1424 1423 1423 1422 1422 1421 1421 1420 1419 1419 1418 1417 1415 1414 1413 1412 1410 1409 1408 1407 1405 1404 1403 1402 1401 1401 1400 1400 1399 1398 1398 1397 1396 1395 1394 1394 1393